Location: Carri�res
(48.9069°N, 2.1792°E)
Time: 13:55:05
(UTC+00:00)

SAR-Lupe-1 - Pass Details

Date: 17 January 2021
Orbit: 481 x 485 km, 98.2° (Epoch: 22 February)

Event Time Altitude Azimuth Distance (km) Brightness Sun altitude
Exits shadow 18:24:14 58° 79° (E) 569 4.0 -19.0°
Maximum altitude 18:24:29 60° 102° (ESE) 557 4.0 -19.1°
Drops below altitude 10° 18:28:00 10° 183° (S) 1,657 6.9 -19.6°
Sets 18:30:04 0° 187° (S) 2,531 7.9 -20.0°
